Location: Shenandoah County Park
(38.9356°N, 78.4524°W)
Time: 06:11:48
(UTC-04:00)

Explorer 11/Cluster Stage 4 - Pass Details

Date: 02 March 2024
Orbit: 465 x 1220 km, 28.8° (Epoch: 12 April)

Event Time Altitude Azimuth Distance (km) Brightness Sun altitude
Rises 01:19:26 0° 258° (WSW) 4,055 - -55.9°
Reaches altitude 10° 01:22:28 10° 251° (WSW) 3,137 - -55.6°
Maximum altitude 01:29:41 38° 187° (S) 1,765 - -55.0°
Drops below altitude 10° 01:36:45 10° 123° (ESE) 3,066 - -54.3°
Sets 01:39:41 0° 115° (ESE) 3,954 - -54.0°
